Beaufort, NC

7:11 PM EDT on August 20, 2019 (GMT -0400)
Smith

Weather History for KMRH - May, 2019

Change the Weather History Date:

Saturday, May 4, 2019

  Actual Average Record
Temperature  
Mean Temperature 74 °F -  
Max Temperature 82 °F 75 °F 85 °F (1991)
Min Temperature 66 °F 55 °F 41 °F (1971)
Cooling Degree Days 8    
Growing Degree Days 24 (Base 50)    
Moisture  
Dew Point 69 °F    
Average Humidity 85    
Maximum Humidity 97    
Minimum Humidity 69    
Precipitation  
Precipitation 0.00 in - - ()
Sea Level Pressure  
Sea Level Pressure 29.89 in    
Wind  
Wind Speed 6 mph (SW)    
Max Wind Speed 17 mph    
Max Gust Speed 25 mph    
Visibility 9 miles    
Events Fog    
Averages and records for this station are not official NWS values.
T = Trace of Precipitation, MM = Missing Value Source: NWS Daily Summary

Daily Weather History Graph

Daily Weather History Graph

Search for Another Location

Airport or City:

Astronomy

May. 04, 2019 Rise Set
Actual Time 6:13 AM EDT 7:53 PM EDT
Civil Twilight 5:46 AM EDT 8:21 PM EDT
Nautical Twilight 5:13 AM EDT 8:53 PM EDT
Astronomical Twilight 4:39 AM EDT 9:28 PM EDT
Moon 6:19 AM EDT (5/4) 7:44 PM EDT (5/4)
Length of Visible Light 14h 34m
Length of Day
13h 40m
Waning Crescent, 0% of the Moon is Illuminated
May 4
Waning Crescent
May 4
New
May 11
First Quarter
May 18
Full
May 26
Last Quarter

Hourly Weather History & Observations

Time (EDT) Temp. Heat Index Dew Point Humidity Pressure Visibility Wind Dir Wind Speed Gust Speed Precip Events Conditions
12:58 AM 72.0 °F - 69.1 °F 91% 29.97 in 10.0 mi SSE 5.8 mph - N/A   Clear
1:58 AM 72.0 °F - 69.1 °F 91% 29.96 in 10.0 mi SSE 4.6 mph - N/A   Mostly Cloudy
2:20 AM 72.0 °F - 69.1 °F 91% 29.94 in 10.0 mi SSE 5.8 mph - N/A   Overcast
2:34 AM 72.0 °F - 69.1 °F 91% 29.94 in 10.0 mi SSE 3.5 mph - N/A   Mostly Cloudy
2:58 AM 71.1 °F - 68.0 °F 90% 29.93 in 10.0 mi Calm Calm - N/A   Clear
3:58 AM 71.1 °F - 69.1 °F 93% 29.92 in 10.0 mi Calm Calm - N/A   Clear
4:58 AM 69.1 °F - 66.9 °F 93% 29.90 in 10.0 mi Calm Calm - N/A   Clear
5:58 AM 66.9 °F - 66.0 °F 97% 29.90 in 10.0 mi Calm Calm - N/A   Clear
6:26 AM 68.0 °F - 64.9 °F 90% 29.90 in 1.8 mi Calm Calm - N/A   Clear
6:34 AM 68.0 °F - 66.0 °F 93% 29.91 in 0.5 mi Calm Calm - N/A Fog Fog
6:41 AM 68.0 °F - 66.0 °F 93% 29.90 in 2.5 mi Calm Calm - N/A   Clear
6:48 AM 68.0 °F - 66.0 °F 93% 29.90 in 8.0 mi Calm Calm - N/A   Clear
6:58 AM 68.0 °F - 66.0 °F 93% 29.91 in 10.0 mi Calm Calm - N/A   Clear
7:58 AM 75.0 °F - 69.1 °F 82% 29.93 in 10.0 mi NW 3.5 mph - N/A   Clear
8:58 AM 77.0 °F - 69.1 °F 76% 29.92 in 10.0 mi NW 4.6 mph - N/A   Clear
9:58 AM 79.0 °F - 69.1 °F 72% 29.92 in 10.0 mi WNW 5.8 mph - N/A   Clear
10:58 AM 79.0 °F - 70.0 °F 74% 29.91 in 10.0 mi SW 9.2 mph - N/A   Scattered Clouds
11:58 AM 80.1 °F 83.2 °F 70.0 °F 71% 29.89 in 10.0 mi WSW 6.9 mph - N/A   Partly Cloudy
12:58 PM 80.1 °F 82.9 °F 69.1 °F 69% 29.88 in 10.0 mi SSW 13.8 mph - N/A   Mostly Cloudy
1:58 PM 81.0 °F 84.9 °F 71.1 °F 72% 29.86 in 10.0 mi SSW 13.8 mph - N/A   Partly Cloudy
2:58 PM 80.1 °F 83.2 °F 70.0 °F 71% 29.86 in 10.0 mi SW 17.3 mph - N/A   Clear
3:58 PM 79.0 °F - 71.1 °F 77% 29.84 in 10.0 mi SSW 15.0 mph 25.3 mph N/A   Clear
4:58 PM 79.0 °F - 70.0 °F 74% 29.82 in 10.0 mi SSW 15.0 mph - N/A   Clear
5:58 PM 77.0 °F - 70.0 °F 79% 29.82 in 10.0 mi SW 16.1 mph - N/A   Clear
6:58 PM 75.0 °F - 70.0 °F 84% 29.82 in 10.0 mi SW 15.0 mph - N/A   Clear
7:58 PM 73.9 °F - 70.0 °F 87% 29.83 in 10.0 mi SW 15.0 mph - N/A   Clear
8:58 PM - - - N/A% 29.86 in 10.0 mi SW 16.1 mph - N/A   Clear
9:58 PM 73.0 °F - 70.0 °F 90% 29.85 in 10.0 mi SSW 13.8 mph - N/A   Clear
10:58 PM 73.0 °F - 70.0 °F 90% 29.86 in 10.0 mi SW 10.4 mph - N/A   Clear
11:05 PM 73.0 °F - 70.0 °F 90% 29.85 in 10.0 mi SW 13.8 mph - N/A   Scattered Clouds
11:21 PM 73.9 °F - 70.0 °F 87% 29.85 in 10.0 mi SW 12.7 mph - N/A   Mostly Cloudy
11:53 PM 73.4 °F - 69.8 °F 88% 29.84 in 10.0 mi SW 10.4 mph - N/A   Scattered Clouds
11:58 PM 73.0 °F - 70.0 °F 90% 29.85 in 10.0 mi SW 12.7 mph - N/A   Partly Cloudy